This is the latest recevied weather packets stored in our database for station/object SR6WXJG. If no packets are shown the sender has not sent any weather packets the latest 10 day(s).
| Time | Temp. | Humidity | Pressure | Rain* | Wind** | Luminosity | Snow |
|---|---|---|---|---|---|---|---|
| 1777025668 | 14.44° C | 47% | 1018 hPa | 0 mm | - | - | - |
| 1777024768 | 14.44° C | 48% | 1018 hPa | 0 mm | - | - | - |
| 1777023867 | 14.44° C | 48% | 1018 hPa | 0 mm | - | - | - |
| 1777022967 | 13.33° C | 49% | 1019 hPa | 0 mm | - | - | - |
| 1777022067 | 13.33° C | 52% | 1019 hPa | 0 mm | - | - | - |
| 1777021166 | 13.33° C | 54% | 1019 hPa | 0 mm | - | - | - |
| 1777020266 | 12.78° C | 54% | 1018 hPa | 0 mm | - | - | - |
| 1777019365 | 12.22° C | 58% | 1019 hPa | 0 mm | - | - | - |
| 1777018465 | 11.67° C | 60% | 1019 hPa | 0 mm | - | - | - |
| 1777017565 | 11.67° C | 61% | 1019 hPa | 0 mm | - | - | - |
| 1777016664 | 11.67° C | 62% | 1019 hPa | 0 mm | - | - | - |
| 1777015764 | 11.11° C | 64% | 1019 hPa | 0 mm | - | - | - |
| 1777014864 | 10° C | 71% | 1019 hPa | 0 mm | - | - | - |
| 1777013963 | 10° C | 71% | 1019 hPa | 0 mm | - | - | - |
| 1777013063 | 10° C | 71% | 1019 hPa | 0 mm | - | - | - |
| 1777012163 | 8.89° C | 71% | 1019 hPa | 0 mm | - | - | - |
| 1777011262 | 8.33° C | 74% | 1019 hPa | 0 mm | - | - | - |
| 1777010362 | 7.78° C | 78% | 1019 hPa | 0 mm | - | - | - |
| 1777009462 | 7.78° C | 79% | 1019 hPa | 0 mm | - | - | - |
| 1777008561 | 6.67° C | 79% | 1019 hPa | 0 mm | - | - | - |
| 1777007661 | 6.11° C | 80% | 1019 hPa | 0 mm | - | - | - |
| 1777006761 | 5.56° C | 85% | 1020 hPa | 0 mm | - | - | - |
| 1777005860 | 5.56° C | 86% | 1020 hPa | 0 mm | - | - | - |
| 1777004960 | 5° C | 81% | 1019 hPa | 0 mm | - | - | - |
| 1777004059 | 5° C | 80% | 1019 hPa | 0 mm | - | - | - |
* Rain latest hour (hover to see other rain measurements)
** Current wind speed in m/s (hover to see current wind gust speed)